Погода в Селезнёве

Россия / Санкт-Петербург и Ленинградская область     60°45′24″N   28°37′09″E
темп.,
°C
ветер,
м/с
пор.,
м/с
влажн.,
%
обл.,
%
осадки,
мм/ч
давл.,
гПа
погр.,
м
23 октября, сб
сб2300:00+4зюз51091100 0.3 983804
03:00+3з3689100 0.3 986613
06:00+3зсз2395100 0.1 988491
09:00+2ссв51096100 0.7 992615
12:00+2ссв51095100 0.7 998744
15:00+3с5978100 0.9 1002929
18:00+2с5108093 0.0 1006824
21:00+2с4108174 0.1 1010678
24 октября, вс
вс2400:00+1ссз498096 0.0 1013634
03:00+1ссз4989100 0.1 1015693
06:000ссз49855 0.1 1018386
09:00−1сз38865 0.1 1020339
12:00+2ссз356791 0.0 1022823
15:00+2зсз2360100 0.0 1024807
18:000зюз2277100 0.0 102454
21:000ююз2375100 0.0 102474
25 октября, пн
пн2500:00+3ююз4969100 0.0 1022502
03:00+3ю61297100 2.5 1019919
06:00+6ююз51296100 1.6 1016739
09:00+7юз61396100 2.8 1013832
12:00+8зюз71493100 2.5 1013892
15:00+8зюз61386100 2.8 10131090
18:00+8зюз51287100 0.1 1012706
21:00+8зюз6138884 0.1 1012755
26 октября, вт
вт2600:00+8зюз51185100 0.1 10121014
03:00+8юз51089100 0.1 1011911
06:00+7юз4118694 0.1 1010598
09:00+8юз51189100 0.1 1009711
12:00+8юз51190100 0.1 1009714
15:00+8юз51293100 0.1 1008868
18:00+9юз61390100 0.3 1007980
21:00+9зюз71277100 0.4 10061080
27 октября, ср
ср2700:00+8зюз51079100 0.1 10061043
03:00+7зюз4108235 0.1 1006648
06:00+5з4109141 0.0 1006500
09:00+5з398471 0.0 1007446
12:00+7зсз488133 0.0 1008647
15:00+7зсз5977100 0.0 1009963
18:00+6зсз4984100 0.1 10101035
21:00+4сз510765 0.4 1013831